Weather History for Wrangell, AK

Change the Weather History Date:

Sunday, November 20, 2011

  Actual Average Record
Temperature  
Mean Temperature 24 °F -  
Max Temperature 26 °F 38 °F 53 °F (1979)
Min Temperature 21 °F 29 °F 10 °F (1963)
Degree Days  
Heating Degree Days 42    
Moisture  
Dew Point 14 °F    
Average Humidity 70    
Maximum Humidity 86    
Minimum Humidity 58    
Precipitation  
Precipitation 0.00 in - - ()
Sea Level Pressure  
Sea Level Pressure 29.52 in    
Wind  
Wind Speed 14 mph (East)    
Max Wind Speed 18 mph    
Max Gust Speed 25 mph    
Visibility 9 miles    
Events      
Averages and records for this station are not official NWS values.
T = Trace of Precipitation, MM = Missing Value Source: NWS Daily Summary

Daily Weather History Graph

Daily Weather History Graph

Search for Another Location

Airport:

Trip Planner

Search our weather history database for the weather conditions in past years. The results will help you decide how hot, cold, wet, or windy it might be!

Date:

Astronomy

Nov. 20, 2011 Rise Set
Actual Time 7:38 AM AKST 3:31 PM AKST
Civil Twilight 6:54 AM AKST 4:15 PM AKST
Nautical Twilight 6:07 AM AKST 5:02 PM AKST
Astronomical Twilight 5:22 AM AKST 5:46 PM AKST
Moon 1:20 AM AKST (11/20) 1:11 PM AKST (11/20)
Length of Visible Light 9h 20m
Length of Day
7h 52m
Waning Crescent, 26% of the Moon is Illuminated
Nov 20
Waning Crescent
Nov 24
New
Dec 2
First Quarter
Dec 10
Full
Dec 17
Last Quarter

Hourly Weather History & Observations

Time (AKST) Temp. Windchill Dew Point Humidity Pressure Visibility Wind Dir Wind Speed Gust Speed Precip Events Conditions
12:16 AM 21.2 °F 8.3 °F 10.4 °F 63% 29.75 in 10.0 mi East 13.8 mph 18.4 mph N/A   Overcast
12:36 AM 21.2 °F 10.1 °F 8.6 °F 58% 29.75 in 10.0 mi East 10.4 mph 16.1 mph N/A   Overcast
12:56 AM 21.2 °F 10.1 °F 10.4 °F 63% 29.74 in 10.0 mi ESE 10.4 mph - N/A   Overcast
1:16 AM 21.2 °F 8.9 °F 10.4 °F 63% 29.73 in 10.0 mi East 12.7 mph 18.4 mph N/A   Overcast
1:36 AM 21.2 °F 7.3 °F 10.4 °F 63% 29.72 in 10.0 mi East 16.1 mph - N/A   Overcast
1:56 AM 21.2 °F 9.5 °F 10.4 °F 63% 29.72 in 10.0 mi East 11.5 mph 16.1 mph N/A   Overcast
2:16 AM 21.2 °F 7.8 °F 8.6 °F 58% 29.71 in 10.0 mi East 15.0 mph 19.6 mph N/A   Overcast
2:36 AM 21.2 °F 9.5 °F 10.4 °F 63% 29.71 in 10.0 mi East 11.5 mph - N/A   Overcast
2:56 AM 21.2 °F 10.1 °F 10.4 °F 63% 29.71 in 10.0 mi East 10.4 mph - N/A   Overcast
3:16 AM 21.2 °F 9.5 °F 10.4 °F 63% 29.71 in 10.0 mi East 11.5 mph - N/A   Overcast
3:36 AM 21.2 °F 8.3 °F 10.4 °F 63% 29.70 in 10.0 mi East 13.8 mph - N/A   Overcast
3:56 AM 21.2 °F 8.3 °F 10.4 °F 63% 29.69 in 10.0 mi East 13.8 mph 17.3 mph N/A   Overcast
4:16 AM 21.2 °F 8.3 °F 10.4 °F 63% 29.68 in 10.0 mi East 13.8 mph 17.3 mph N/A   Overcast
4:36 AM 21.2 °F 8.3 °F 10.4 °F 63% 29.67 in 10.0 mi East 13.8 mph 19.6 mph N/A   Overcast
4:56 AM 21.2 °F 8.3 °F 10.4 °F 63% 29.67 in 10.0 mi East 13.8 mph 19.6 mph N/A   Overcast
5:16 AM 21.2 °F 8.9 °F 10.4 °F 63% 29.65 in 10.0 mi East 12.7 mph 19.6 mph N/A   Overcast
5:36 AM 21.2 °F 7.8 °F 12.2 °F 68% 29.64 in 10.0 mi East 15.0 mph 20.7 mph N/A   Overcast
5:56 AM 21.2 °F 7.8 °F 12.2 °F 68% 29.63 in 10.0 mi East 15.0 mph - N/A   Overcast
6:16 AM 21.2 °F 8.3 °F 12.2 °F 68% 29.62 in 10.0 mi East 13.8 mph - N/A   Overcast
6:36 AM 21.2 °F 8.9 °F 10.4 °F 63% 29.61 in 10.0 mi East 12.7 mph - N/A   Overcast
6:56 AM 21.2 °F 8.9 °F 12.2 °F 68% 29.61 in 10.0 mi East 12.7 mph 20.7 mph N/A   Overcast
7:16 AM 21.2 °F 6.4 °F 12.2 °F 68% 29.59 in 10.0 mi East 18.4 mph - N/A   Overcast
7:36 AM 21.2 °F 7.8 °F 12.2 °F 68% 29.59 in 10.0 mi East 15.0 mph 19.6 mph N/A   Overcast
7:56 AM 21.2 °F 8.9 °F 12.2 °F 68% 29.59 in 10.0 mi East 12.7 mph 18.4 mph N/A   Overcast
8:16 AM 21.2 °F 7.8 °F 12.2 °F 68% 29.58 in 10.0 mi East 15.0 mph - N/A   Overcast
8:36 AM 21.2 °F 8.9 °F 12.2 °F 68% 29.58 in 10.0 mi East 12.7 mph - N/A   Overcast
8:56 AM 21.2 °F 7.3 °F 12.2 °F 68% 29.57 in 10.0 mi East 16.1 mph 20.7 mph N/A   Overcast
9:16 AM 21.2 °F 6.4 °F 12.2 °F 68% 29.56 in 10.0 mi East 18.4 mph - N/A   Overcast
9:36 AM 21.2 °F 7.8 °F 10.4 °F 63% 29.56 in 10.0 mi East 15.0 mph - N/A   Overcast
9:56 AM 21.2 °F 7.3 °F 12.2 °F 68% 29.54 in 10.0 mi East 16.1 mph - N/A   Overcast
10:16 AM 23.0 °F 10.1 °F 12.2 °F 63% 29.54 in 10.0 mi East 15.0 mph 18.4 mph N/A   Overcast
10:36 AM 23.0 °F 11.1 °F 12.2 °F 63% 29.53 in 10.0 mi East 12.7 mph - N/A   Overcast
10:56 AM 23.0 °F 11.1 °F 14.0 °F 68% 29.52 in 10.0 mi East 12.7 mph - N/A   Overcast
11:16 AM 23.0 °F 10.1 °F 14.0 °F 68% 29.50 in 10.0 mi East 15.0 mph - N/A   Overcast
11:36 AM 23.0 °F 11.1 °F 15.8 °F 74% 29.49 in 10.0 mi East 12.7 mph - N/A   Overcast
11:56 AM 23.0 °F 11.1 °F 17.6 °F 80% 29.48 in 7.0 mi East 12.7 mph - N/A   Overcast
12:16 PM 23.0 °F 11.1 °F 17.6 °F 80% 29.46 in 7.0 mi East 12.7 mph - N/A   Overcast
12:36 PM 23.0 °F 11.7 °F 17.6 °F 80% 29.45 in 7.0 mi East 11.5 mph - N/A   Overcast
12:56 PM 24.8 °F 13.4 °F 17.6 °F 74% 29.43 in 7.0 mi East 12.7 mph 18.4 mph N/A   Overcast
1:16 PM 24.8 °F 12.4 °F 19.4 °F 80% 29.41 in 7.0 mi East 15.0 mph - N/A   Overcast
1:36 PM 24.8 °F 12.9 °F 19.4 °F 80% 29.40 in 7.0 mi East 13.8 mph 18.4 mph N/A   Overcast
1:56 PM 24.8 °F 11.9 °F 19.4 °F 80% 29.38 in 7.0 mi East 16.1 mph - N/A   Overcast
2:16 PM 24.8 °F 12.4 °F 19.4 °F 80% 29.37 in 7.0 mi East 15.0 mph - N/A   Overcast
2:36 PM 24.8 °F 11.9 °F 19.4 °F 80% 29.35 in 7.0 mi East 16.1 mph 20.7 mph N/A   Overcast
2:56 PM 24.8 °F 11.5 °F 17.6 °F 74% 29.33 in 7.0 mi East 17.3 mph 25.3 mph N/A   Overcast
3:16 PM 24.8 °F 11.5 °F 19.4 °F 80% 29.32 in 7.0 mi East 17.3 mph 23.0 mph N/A   Overcast
3:36 PM 24.8 °F 12.9 °F 17.6 °F 74% 29.31 in 7.0 mi East 13.8 mph 23.0 mph N/A   Overcast
3:56 PM 24.8 °F 12.9 °F 19.4 °F 80% 29.30 in 7.0 mi East 13.8 mph 20.7 mph N/A   Overcast
4:16 PM 24.8 °F 12.4 °F 19.4 °F 80% 29.28 in 7.0 mi East 15.0 mph 23.0 mph N/A   Overcast
4:36 PM 24.8 °F 12.4 °F 19.4 °F 80% 29.26 in 7.0 mi East 15.0 mph - N/A   Overcast
4:56 PM 24.8 °F 12.4 °F 21.2 °F 86% 29.24 in 5.0 mi East 15.0 mph - N/A   Overcast
5:16 PM 24.8 °F 14.0 °F 21.2 °F 86% 29.24 in 5.0 mi ENE 11.5 mph - N/A   Overcast
5:36 PM 26.6 °F 14.3 °F 21.2 °F 80% 29.21 in 5.0 mi East 16.1 mph 24.2 mph N/A   Overcast
5:56 PM 26.6 °F 14.7 °F 19.4 °F 74% 29.20 in 5.0 mi East 15.0 mph - N/A   Overcast
6:16 PM 26.6 °F 14.7 °F 21.2 °F 80% 29.18 in 5.0 mi East 15.0 mph 20.7 mph N/A   Overcast
6:36 PM 26.6 °F 14.3 °F 19.4 °F 74% 29.15 in 5.0 mi East 16.1 mph 24.2 mph N/A   Overcast
6:56 PM 26.6 °F 13.1 °F 21.2 °F 80% 29.13 in 5.0 mi East 19.6 mph 24.2 mph N/A   Overcast
7:16 PM 26.6 °F 13.1 °F 21.2 °F 80% 29.10 in 5.0 mi East 19.6 mph 26.5 mph N/A   Overcast
7:36 PM 26.6 °F 12.7 °F 21.2 °F 80% 29.07 in 5.0 mi East 20.7 mph 24.2 mph N/A   Overcast
7:56 PM 28.4 °F 16.2 °F 21.2 °F 74% 29.05 in 5.0 mi East 17.3 mph 27.6 mph N/A   Overcast
8:16 PM 28.4 °F 15.4 °F 21.2 °F 74% 29.02 in 5.0 mi East 19.6 mph 26.5 mph N/A   Overcast
8:36 PM 28.4 °F 15.4 °F 21.2 °F 74% 29.00 in 5.0 mi East 19.6 mph 23.0 mph N/A   Overcast
8:56 PM 30.2 °F 16.8 °F 24.8 °F 80% 28.99 in 5.0 mi East 23.0 mph 28.8 mph N/A   Overcast
9:16 PM 30.2 °F 17.1 °F 24.8 °F 80% 28.98 in 5.0 mi East 21.9 mph 27.6 mph N/A   Overcast
9:36 PM 32.0 °F 19.8 °F 24.8 °F 75% 28.98 in 5.0 mi East 20.7 mph 26.5 mph N/A   Overcast
9:56 PM 32.0 °F 19.8 °F 24.8 °F 75% 28.97 in 5.0 mi East 20.7 mph 27.6 mph N/A   Overcast
10:16 PM 32.0 °F 20.8 °F 24.8 °F 75% 28.97 in 5.0 mi East 17.3 mph - N/A   Overcast
10:36 PM 32.0 °F 22.1 °F 24.8 °F 75% 28.96 in 5.0 mi East 13.8 mph - N/A   Overcast
10:56 PM 33.8 °F 25.8 °F 24.8 °F 70% 28.97 in 5.0 mi ENE 10.4 mph - N/A   Overcast
11:16 PM 35.6 °F 24.8 °F 28.4 °F 75% 28.95 in 9.0 mi ESE 19.6 mph 24.2 mph N/A   Overcast
11:36 PM 33.8 °F 23.5 °F 28.4 °F 81% 28.96 in 3.0 mi ESE 16.1 mph 24.2 mph N/A   Overcast
11:56 PM 35.6 °F 28.6 °F 28.4 °F 75% 28.96 in 10.0 mi East 9.2 mph 21.9 mph N/A   Overcast